sat.trackr.live / text

‹ back to catalog

STARLINK-32016

NORAD 60096 · 2024-117F

PAYLOAD ACTIVE UNKNOWN

§ Identity

Operator
Country
US
Launch date
2024-06-23
Launch site
AFETR
Launch vehicle
Mass (kg)
RCS (m²)

Purposes: comms

External: N2YO · Heavens-Above · Gunter

§ Orbital elements

Epoch: 2026-05-25T02:39:08.330112Z

Period
94.11 min
Inclination
53.1612°
Eccentricity
0.0001262
Mean motion
15.30194707 rev/d
Perigee alt
474.4 km
Apogee alt
476.1 km
Semi-major
6,853.4 km
B*
2.8289e-5
RAAN
42.3865°
Arg perigee
83.4375°
Mean anomaly
276.6770°
Rev number
10,858

§ Raw data

STARLINK-320161 60096U 24117F   26145.11051308  .00000479  00000+0  28289-4 0  99952 60096  53.1612  42.3865 0001262  83.4375 276.6770 15.30194707108584

JSON: /api/v1/satellites/60096 · /tle

For live sub-satellite position, see the globe view (requires WebGL).

§ Visibility from observer

Set your observer location to see the next 7 days of passes ≥ 10°. The values pass through the URL so the page stays shareable.

No JS? Fill the form by hand. The geolocation button needs JavaScript.